20040728,000015,1304671,34.235000,-119.579333,NaN,18.118,33.378,44.107,  NaN,0.0, NaN, NaN, NaN, NaN,24.001,389.902,15.10,1012.28,94.40,NaN,86.0,NaN,2.9,NaN,281.0,NaN,6.0,NaN,NaN, NaN,NaN,133.0,NaN,NaN,NaN,2,10.6,000026,   NaN,133.2,     NaN,      NaN,NaN,11.1,NaN,18.122, NaN,NaN,NaN, NaN, NaN
20040728,000045,1304701,34.234000,-119.578167,NaN,18.120,33.378,44.110,  NaN,0.0, NaN, NaN, NaN, NaN,24.001,389.944,15.00,1012.22,94.40,NaN,105.0,NaN,3.8,NaN,285.6,NaN,7.8,NaN,NaN, NaN,NaN,135.0,NaN,NaN,NaN,2,10.8,000056,   NaN,135.6,     NaN,      NaN,NaN,11.3,NaN,18.124, NaN,NaN,NaN, NaN, NaN
20040728,000114,1304730,34.233000,-119.576833,NaN,18.122,33.378,44.112,  NaN,0.0, NaN, NaN, NaN, NaN,24.000,390.004,15.10,1012.28,95.00,NaN,88.0,NaN,3.3,NaN,285.9,NaN,6.9,NaN,NaN, NaN,NaN,133.0,NaN,NaN,NaN,2,10.7,000086,   NaN,132.7,     NaN,      NaN,NaN,11.5,NaN,18.127, NaN,NaN,NaN, NaN, NaN
20040728,000144,1304760,34.232000,-119.575500,NaN,18.110,33.380,44.103,  NaN,0.0, NaN, NaN, NaN, NaN,24.005,389.570,15.30,1012.34,94.80,NaN,103.0,NaN,4.9,NaN,278.4,NaN,8.6,NaN,NaN, NaN,NaN,135.0,NaN,NaN,NaN,2,10.7,000116,   NaN,134.2,     NaN,      NaN,NaN,11.5,NaN,18.114, NaN,NaN,NaN, NaN, NaN
20040728,000214,1304790,34.231000,-119.574333,NaN,18.118,33.381,44.111,  NaN,0.0, NaN, NaN, NaN, NaN,24.004,389.687,15.10,1012.19,94.80,NaN,89.0,NaN,4.1,NaN,276.5,NaN,6.9,NaN,NaN, NaN,NaN,134.0,NaN,NaN,NaN,2,10.7,000146,   NaN,134.3,     NaN,      NaN,NaN,11.0,NaN,18.122, NaN,NaN,NaN, NaN, NaN
20040728,000245,1304821,34.229833,-119.573000,NaN,18.128,33.383,44.123,  NaN,0.0, NaN, NaN, NaN, NaN,24.003,389.802,15.30,1012.30,94.80,NaN,73.0,NaN,2.0,NaN,286.5,NaN,5.3,NaN,NaN, NaN,NaN,134.0,NaN,NaN,NaN,2,10.8,000176,   NaN,133.0,     NaN,      NaN,NaN,11.3,NaN,18.132, NaN,NaN,NaN, NaN, NaN
20040728,000315,1304851,34.228833,-119.571667,NaN,18.142,33.384,44.137,  NaN,0.0, NaN, NaN, NaN, NaN,24.000,390.060,15.10,1012.26,94.30,NaN,86.0,NaN,3.8,NaN,288.2,NaN,6.0,NaN,NaN, NaN,NaN,134.0,NaN,NaN,NaN,2,10.9,000206,   NaN,133.9,     NaN,      NaN,NaN,11.5,NaN,18.146, NaN,NaN,NaN, NaN, NaN
20040728,000344,1304880,34.227833,-119.570500,NaN,18.158,33.384,44.153,  NaN,0.0, NaN, NaN, NaN, NaN,23.996,390.423,15.10,1012.28,94.80,NaN,80.0,NaN,3.3,NaN,279.6,NaN,5.9,NaN,NaN, NaN,NaN,135.0,NaN,NaN,NaN,2,10.8,000236,   NaN,135.4,     NaN,      NaN,NaN,11.6,NaN,18.162, NaN,NaN,NaN, NaN, NaN
20040728,000414,1304910,34.226667,-119.569167,NaN,18.130,33.389,44.132,  NaN,0.0, NaN, NaN, NaN, NaN,24.007,389.428,15.10,1012.20,94.40,NaN,78.0,NaN,6.2,NaN,260.8,NaN,7.3,NaN,NaN, NaN,NaN,134.0,NaN,NaN,NaN,2,10.8,000266,   NaN,133.2,     NaN,      NaN,NaN,11.6,NaN,18.135, NaN,NaN,NaN, NaN, NaN
20040728,000445,1304941,34.225667,-119.567833,NaN,18.138,33.388,44.139,  NaN,0.0, NaN, NaN, NaN, NaN,24.004,389.634,15.00,1012.20,94.70,NaN,86.0,NaN,5.2,NaN,272.2,NaN,7.8,NaN,NaN, NaN,NaN,136.0,NaN,NaN,NaN,2,10.8,000296,   NaN,135.1,     NaN,      NaN,NaN,11.5,NaN,18.142, NaN,NaN,NaN, NaN, NaN
20040728,000515,1304971,34.224667,-119.566500,NaN,18.144,33.389,44.146,  NaN,0.0, NaN, NaN, NaN, NaN,24.003,389.731,15.30,1012.31,94.40,NaN,92.0,NaN,4.1,NaN,275.4,NaN,7.1,NaN,NaN, NaN,NaN,132.0,NaN,NaN,NaN,2,10.8,000326,   NaN,130.5,     NaN,      NaN,NaN,11.4,NaN,18.148, NaN,NaN,NaN, NaN, NaN
20040728,000544,1305000,34.223667,-119.565167,NaN,18.178,33.389,44.179,  NaN,0.0, NaN, NaN, NaN, NaN,23.995,390.521,15.30,1012.20,95.20,NaN,85.0,NaN,3.4,NaN,284.2,NaN,6.3,NaN,NaN, NaN,NaN,133.0,NaN,NaN,NaN,2,10.9,000356,   NaN,133.1,     NaN,      NaN,NaN,11.7,NaN,18.183, NaN,NaN,NaN, NaN, NaN
20040728,000614,1305030,34.222667,-119.563833,NaN,18.183,33.388,44.182,  NaN,0.0, NaN, NaN, NaN, NaN,23.993,390.664,15.10,1012.17,94.50,NaN,86.0,NaN,5.2,NaN,280.4,NaN,8.0,NaN,NaN, NaN,NaN,136.0,NaN,NaN,NaN,2,10.8,000386,   NaN,136.4,     NaN,      NaN,NaN,11.4,NaN,18.187, NaN,NaN,NaN, NaN, NaN
20040728,000644,1305060,34.221500,-119.562667,NaN,18.176,33.387,44.175,  NaN,0.0, NaN, NaN, NaN, NaN,23.994,390.589,15.10,1012.22,94.70,NaN,93.0,NaN,3.1,NaN,281.0,NaN,6.4,NaN,NaN, NaN,NaN,135.0,NaN,NaN,NaN,2,10.8,000416,   NaN,133.5,     NaN,      NaN,NaN,11.4,NaN,18.180, NaN,NaN,NaN, NaN, NaN
20040728,000715,1305091,34.220500,-119.561333,NaN,18.166,33.386,44.163,  NaN,0.0, NaN, NaN, NaN, NaN,23.995,390.474,15.40,1012.12,95.00,NaN,87.0,NaN,4.1,NaN,277.5,NaN,6.4,NaN,NaN, NaN,NaN,134.0,NaN,NaN,NaN,2,10.8,000446,   NaN,133.4,     NaN,      NaN,NaN,11.8,NaN,18.171, NaN,NaN,NaN, NaN, NaN
20040728,000745,1305121,34.219500,-119.560167,NaN,18.149,33.384,44.145,  NaN,0.0, NaN, NaN, NaN, NaN,23.998,390.221,15.10,1012.18,93.90,NaN,108.0,NaN,4.1,NaN,280.8,NaN,7.7,NaN,NaN, NaN,NaN,135.0,NaN,NaN,NaN,2,10.8,000476,   NaN,134.0,     NaN,      NaN,NaN,11.6,NaN,18.154, NaN,NaN,NaN, NaN, NaN
20040728,000814,1305150,34.218333,-119.558833,NaN,18.149,33.381,44.140,  NaN,0.0, NaN, NaN, NaN, NaN,23.996,390.437,15.10,1012.13,95.20,NaN,105.0,NaN,2.8,NaN,285.1,NaN,7.1,NaN,NaN, NaN,NaN,132.0,NaN,NaN,NaN,2,10.9,000506,   NaN,132.4,     NaN,      NaN,NaN,11.6,NaN,18.153, NaN,NaN,NaN, NaN, NaN
20040728,000844,1305180,34.217333,-119.557500,NaN,18.139,33.377,44.127,  NaN,0.0, NaN, NaN, NaN, NaN,23.996,390.451,15.10,1012.23,94.80,NaN,81.0,NaN,3.2,NaN,285.2,NaN,7.5,NaN,NaN, NaN,NaN,134.0,NaN,NaN,NaN,2,10.9,000536,   NaN,132.5,     NaN,      NaN,NaN,11.6,NaN,18.144, NaN,NaN,NaN, NaN, NaN
20040728,000915,1305211,34.216333,-119.556167,NaN,18.141,33.375,44.127,  NaN,0.0, NaN, NaN, NaN, NaN,23.993,390.664,15.30,1012.22,94.90,NaN,92.0,NaN,5.1,NaN,274.3,NaN,8.1,NaN,NaN, NaN,NaN,136.0,NaN,NaN,NaN,2,10.9,000566,   NaN,135.0,     NaN,      NaN,NaN,11.8,NaN,18.145, NaN,NaN,NaN, NaN, NaN
20040728,000945,1305241,34.215167,-119.554833,NaN,18.171,33.372,44.152,  NaN,0.0, NaN, NaN, NaN, NaN,23.984,391.569,15.30,1012.14,94.50,NaN,83.0,NaN,4.9,NaN,270.4,NaN,7.3,NaN,NaN, NaN,NaN,135.0,NaN,NaN,NaN,2,10.8,000596,   NaN,134.7,     NaN,      NaN,NaN,11.5,NaN,18.175, NaN,NaN,NaN, NaN, NaN
20040728,001014,1305270,34.214167,-119.553667,NaN,18.205,33.374,44.187,  NaN,0.0, NaN, NaN, NaN, NaN,23.977,392.248,15.30,1012.16,94.30,NaN,95.0,NaN,6.0,NaN,271.9,NaN,8.6,NaN,NaN, NaN,NaN,134.0,NaN,NaN,NaN,2,10.9,000626,   NaN,132.2,     NaN,      NaN,NaN,11.5,NaN,18.209, NaN,NaN,NaN, NaN, NaN
20040728,001044,1305300,34.213167,-119.552333,NaN,18.232,33.377,44.217,  NaN,0.0, NaN, NaN, NaN, NaN,23.973,392.637,15.10,1012.13,94.90,NaN,77.0,NaN,3.7,NaN,286.2,NaN,5.8,NaN,NaN, NaN,NaN,134.0,NaN,NaN,NaN,2,11.0,000656,   NaN,134.6,     NaN,      NaN,NaN,11.8,NaN,18.236, NaN,NaN,NaN, NaN, NaN
20040728,001115,1305331,34.212167,-119.551000,NaN,18.226,33.379,44.212,  NaN,0.0, NaN, NaN, NaN, NaN,23.975,392.409,15.10,1012.16,94.00,NaN,92.0,NaN,4.5,NaN,274.5,NaN,7.0,NaN,NaN, NaN,NaN,134.0,NaN,NaN,NaN,2,10.9,000686,   NaN,134.8,     NaN,      NaN,NaN,11.5,NaN,18.230, NaN,NaN,NaN, NaN, NaN
20040728,001145,1305361,34.211000,-119.549667,NaN,18.221,33.383,44.213,  NaN,0.0, NaN, NaN, NaN, NaN,23.980,392.007,15.10,1012.12,94.90,NaN,98.0,NaN,4.1,NaN,279.2,NaN,6.6,NaN,NaN, NaN,NaN,136.0,NaN,NaN,NaN,2,10.8,000716,   NaN,135.3,     NaN,      NaN,NaN,11.6,NaN,18.226, NaN,NaN,NaN, NaN, NaN
20040728,001215,1305391,34.210000,-119.548333,NaN,18.173,33.380,44.163,  NaN,0.0, NaN, NaN, NaN, NaN,23.989,391.090,15.10,1012.15,94.80,NaN,109.0,NaN,3.3,NaN,284.2,NaN,8.3,NaN,NaN, NaN,NaN,131.0,NaN,NaN,NaN,2,10.9,000746,   NaN,130.4,     NaN,      NaN,NaN,11.4,NaN,18.178, NaN,NaN,NaN, NaN, NaN
20040728,001244,1305420,34.209000,-119.547000,NaN,18.186,33.378,44.174,  NaN,0.0, NaN, NaN, NaN, NaN,23.984,391.521,15.30,1012.08,95.00,NaN,93.0,NaN,5.2,NaN,278.6,NaN,7.3,NaN,NaN, NaN,NaN,135.0,NaN,NaN,NaN,2,10.9,000776,   NaN,134.7,     NaN,      NaN,NaN,11.8,NaN,18.191, NaN,NaN,NaN, NaN, NaN
20040728,001314,1305450,34.207833,-119.545833,NaN,18.239,33.378,44.224,  NaN,0.0, NaN, NaN, NaN, NaN,23.971,392.778,15.30,1012.09,94.70,NaN,85.0,NaN,2.5,NaN,286.7,NaN,7.1,NaN,NaN, NaN,NaN,136.0,NaN,NaN,NaN,2,10.9,000806,   NaN,135.1,     NaN,      NaN,NaN,11.7,NaN,18.243, NaN,NaN,NaN, NaN, NaN
20040728,001345,1305481,34.206833,-119.544500,NaN,18.264,33.379,44.250,  NaN,0.0, NaN, NaN, NaN, NaN,23.967,393.234,15.00,1012.11,94.40,NaN,76.0,NaN,3.4,NaN,282.6,NaN,6.5,NaN,NaN, NaN,NaN,133.0,NaN,NaN,NaN,2,10.8,000836,   NaN,131.6,     NaN,      NaN,NaN,11.2,NaN,18.268, NaN,NaN,NaN, NaN, NaN
20040728,001415,1305511,34.205833,-119.543167,NaN,18.302,33.379,44.286,  NaN,0.0, NaN, NaN, NaN, NaN,23.957,394.189,15.10,1012.07,94.70,NaN,79.0,NaN,3.3,NaN,273.6,NaN,5.7,NaN,NaN, NaN,NaN,133.0,NaN,NaN,NaN,2,10.9,000866,   NaN,132.9,     NaN,      NaN,NaN,11.5,NaN,18.307, NaN,NaN,NaN, NaN, NaN
20040728,001444,1305540,34.204833,-119.541833,NaN,18.344,33.378,44.326,  NaN,0.0, NaN, NaN, NaN, NaN,23.945,395.266,15.00,1012.05,94.80,NaN,81.0,NaN,5.2,NaN,268.3,NaN,7.2,NaN,NaN, NaN,NaN,136.0,NaN,NaN,NaN,2,10.9,000896,   NaN,135.2,     NaN,      NaN,NaN,11.6,NaN,18.349, NaN,NaN,NaN, NaN, NaN
20040728,001514,1305570,34.203667,-119.540667,NaN,18.381,33.378,44.361,  NaN,0.0, NaN, NaN, NaN, NaN,23.937,396.095,15.00,1012.03,94.30,NaN,84.0,NaN,4.6,NaN,278.3,NaN,7.3,NaN,NaN, NaN,NaN,135.0,NaN,NaN,NaN,2,10.9,000926,   NaN,134.8,     NaN,      NaN,NaN,11.3,NaN,18.385, NaN,NaN,NaN, NaN, NaN
20040728,001544,1305600,34.202667,-119.539333,NaN,18.412,33.379,44.392,  NaN,0.0, NaN, NaN, NaN, NaN,23.929,396.799,15.10,1012.05,95.40,NaN,88.0,NaN,4.0,NaN,274.5,NaN,6.7,NaN,NaN, NaN,NaN,134.0,NaN,NaN,NaN,2,11.0,000956,   NaN,133.6,     NaN,      NaN,NaN,11.7,NaN,18.417, NaN,NaN,NaN, NaN, NaN
20040728,001615,1305631,34.201667,-119.538000,NaN,18.428,33.378,44.407,  NaN,0.0, NaN, NaN, NaN, NaN,23.925,397.186,15.10,1012.11,94.90,NaN,95.0,NaN,4.2,NaN,281.5,NaN,7.6,NaN,NaN, NaN,NaN,134.0,NaN,NaN,NaN,2,11.1,000986,   NaN,133.7,     NaN,      NaN,NaN,11.7,NaN,18.432, NaN,NaN,NaN, NaN, NaN
20040728,001645,1305661,34.200500,-119.536667,NaN,18.441,33.378,44.420,  NaN,0.0, NaN, NaN, NaN, NaN,23.922,397.487,15.00,1012.08,94.10,NaN,99.0,NaN,3.2,NaN,285.7,NaN,7.2,NaN,NaN, NaN,NaN,134.0,NaN,NaN,NaN,2,10.8,001016,   NaN,133.9,     NaN,      NaN,NaN,11.7,NaN,18.446, NaN,NaN,NaN, NaN, NaN
20040728,001714,1305690,34.199500,-119.535333,NaN,18.436,33.379,44.415,  NaN,0.0, NaN, NaN, NaN, NaN,23.924,397.303,15.00,1012.02,94.40,NaN,104.0,NaN,4.2,NaN,283.8,NaN,7.7,NaN,NaN, NaN,NaN,135.0,NaN,NaN,NaN,2,11.0,001046,   NaN,136.3,     NaN,      NaN,NaN,11.3,NaN,18.440, NaN,NaN,NaN, NaN, NaN
20040728,001744,1305720,34.198333,-119.534000,NaN,18.429,33.379,44.409,  NaN,0.0, NaN, NaN, NaN, NaN,23.926,397.120,15.00,1012.04,94.90,NaN,110.0,NaN,3.9,NaN,283.2,NaN,8.0,NaN,NaN, NaN,NaN,134.0,NaN,NaN,NaN,2,10.9,001076,   NaN,131.9,     NaN,      NaN,NaN,11.2,NaN,18.433, NaN,NaN,NaN, NaN, NaN
20040728,001815,1305751,34.197333,-119.532833,NaN,18.416,33.378,44.395,  NaN,0.0, NaN, NaN, NaN, NaN,23.928,396.902,15.10,1012.09,94.80,NaN,101.0,NaN,3.9,NaN,282.2,NaN,7.5,NaN,NaN, NaN,NaN,134.0,NaN,NaN,NaN,2,10.9,001106,   NaN,134.3,     NaN,      NaN,NaN,11.7,NaN,18.420, NaN,NaN,NaN, NaN, NaN
20040728,001845,1305781,34.196333,-119.531500,NaN,18.389,33.380,44.372,  NaN,0.0, NaN, NaN, NaN, NaN,23.936,396.145,15.10,1012.13,94.80,NaN,101.0,NaN,4.3,NaN,282.0,NaN,7.6,NaN,NaN, NaN,NaN,137.0,NaN,NaN,NaN,2,11.0,001136,   NaN,135.8,     NaN,      NaN,NaN,11.5,NaN,18.394, NaN,NaN,NaN, NaN, NaN
20040728,001914,1305810,34.195167,-119.530167,NaN,18.387,33.377,44.366,  NaN,0.0, NaN, NaN, NaN, NaN,23.934,396.321,15.10,1012.08,95.40,NaN,96.0,NaN,2.7,NaN,284.1,NaN,6.5,NaN,NaN, NaN,NaN,132.0,NaN,NaN,NaN,2,10.8,001166,   NaN,132.0,     NaN,      NaN,NaN,11.4,NaN,18.392, NaN,NaN,NaN, NaN, NaN
20040728,001944,1305840,34.194167,-119.528833,NaN,18.392,33.377,44.371,  NaN,0.0, NaN, NaN, NaN, NaN,23.933,396.399,15.30,1012.05,94.70,NaN,87.0,NaN,4.0,NaN,268.3,NaN,7.0,NaN,NaN, NaN,NaN,133.0,NaN,NaN,NaN,2,10.9,001196,   NaN,133.9,     NaN,      NaN,NaN,11.5,NaN,18.397, NaN,NaN,NaN, NaN, NaN
20040728,002014,1305870,34.193167,-119.527667,NaN,18.389,33.377,44.368,  NaN,0.0, NaN, NaN, NaN, NaN,23.934,396.319,15.30,1012.06,94.80,NaN,95.0,NaN,4.5,NaN,272.4,NaN,6.5,NaN,NaN, NaN,NaN,137.0,NaN,NaN,NaN,2,10.9,001226,   NaN,136.9,     NaN,      NaN,NaN,11.8,NaN,18.393, NaN,NaN,NaN, NaN, NaN
20040728,002045,1305901,34.192000,-119.526333,NaN,18.393,33.377,44.372,  NaN,0.0, NaN, NaN, NaN, NaN,23.933,396.441,15.10,1012.04,94.90,NaN,83.0,NaN,5.2,NaN,270.2,NaN,8.1,NaN,NaN, NaN,NaN,134.0,NaN,NaN,NaN,2,10.8,001256,   NaN,132.0,     NaN,      NaN,NaN,11.5,NaN,18.398, NaN,NaN,NaN, NaN, NaN
20040728,002115,1305931,34.191000,-119.525000,NaN,18.405,33.377,44.384,  NaN,0.0, NaN, NaN, NaN, NaN,23.930,396.702,15.00,1012.08,94.70,NaN,97.0,NaN,4.8,NaN,275.4,NaN,8.3,NaN,NaN, NaN,NaN,132.0,NaN,NaN,NaN,2,10.9,001286,   NaN,131.0,     NaN,      NaN,NaN,11.3,NaN,18.410, NaN,NaN,NaN, NaN, NaN
20040728,002144,1305960,34.190000,-119.523667,NaN,18.406,33.380,44.388,  NaN,0.0, NaN, NaN, NaN, NaN,23.932,396.571,15.10,1012.10,94.90,NaN,86.0,NaN,6.1,NaN,274.3,NaN,7.5,NaN,NaN, NaN,NaN,138.0,NaN,NaN,NaN,2,10.7,001316,   NaN,135.5,     NaN,      NaN,NaN,11.6,NaN,18.411, NaN,NaN,NaN, NaN, NaN
20040728,002214,1305990,34.188833,-119.522500,NaN,18.382,33.380,44.364,  NaN,0.0, NaN, NaN, NaN, NaN,23.938,395.943,15.00,1012.05,94.40,NaN,95.0,NaN,5.6,NaN,274.4,NaN,7.8,NaN,NaN, NaN,NaN,135.0,NaN,NaN,NaN,2,10.5,001346,   NaN,133.6,     NaN,      NaN,NaN,11.1,NaN,18.386, NaN,NaN,NaN, NaN, NaN
20040728,002245,1306021,34.187833,-119.521167,NaN,18.413,33.380,44.395,  NaN,0.0, NaN, NaN, NaN, NaN,23.930,396.712,15.00,1012.11,94.80,NaN,88.0,NaN,5.1,NaN,272.1,NaN,7.0,NaN,NaN, NaN,NaN,134.0,NaN,NaN,NaN,2,10.6,001376,   NaN,133.2,     NaN,      NaN,NaN,11.3,NaN,18.418, NaN,NaN,NaN, NaN, NaN
20040728,002315,1306051,34.186833,-119.520000,NaN,18.435,33.380,44.416,  NaN,0.0, NaN, NaN, NaN, NaN,23.925,397.216,15.00,1012.11,94.70,NaN,100.0,NaN,3.6,NaN,276.7,NaN,6.8,NaN,NaN, NaN,NaN,134.0,NaN,NaN,NaN,2,10.5,001406,   NaN,131.7,     NaN,      NaN,NaN,11.6,NaN,18.440, NaN,NaN,NaN, NaN, NaN
20040728,002344,1306080,34.185833,-119.518667,NaN,18.436,33.384,44.422,  NaN,0.0, NaN, NaN, NaN, NaN,23.927,396.959,14.90,1012.12,94.80,NaN,83.0,NaN,5.1,NaN,272.9,NaN,7.8,NaN,NaN, NaN,NaN,135.0,NaN,NaN,NaN,2,10.6,001436,   NaN,134.3,     NaN,      NaN,NaN,11.6,NaN,18.441, NaN,NaN,NaN, NaN, NaN
20040728,002414,1306110,34.184833,-119.517500,NaN,18.384,33.386,44.374,  NaN,0.0, NaN, NaN, NaN, NaN,23.942,395.573,14.90,1012.12,94.70,NaN,92.0,NaN,4.3,NaN,274.9,NaN,7.2,NaN,NaN, NaN,NaN,137.0,NaN,NaN,NaN,2,10.6,001466,   NaN,135.0,     NaN,      NaN,NaN,11.0,NaN,18.389, NaN,NaN,NaN, NaN, NaN
20040728,002444,1306140,34.183833,-119.516167,NaN,18.342,33.388,44.335,  NaN,0.0, NaN, NaN, NaN, NaN,23.954,394.451,14.90,1012.10,95.00,NaN,100.0,NaN,4.7,NaN,276.1,NaN,7.5,NaN,NaN, NaN,NaN,133.0,NaN,NaN,NaN,2,10.7,001496,   NaN,131.1,     NaN,      NaN,NaN,11.1,NaN,18.346, NaN,NaN,NaN, NaN, NaN
20040728,002515,1306171,34.182833,-119.515000,NaN,18.358,33.386,44.349,  NaN,0.0, NaN, NaN, NaN, NaN,23.949,394.924,14.90,1012.10,94.80,NaN,96.0,NaN,5.2,NaN,275.4,NaN,8.3,NaN,NaN, NaN,NaN,135.0,NaN,NaN,NaN,2,10.5,001526,   NaN,133.8,     NaN,      NaN,NaN,11.3,NaN,18.362, NaN,NaN,NaN, NaN, NaN
20040728,002545,1306201,34.181667,-119.513667,NaN,18.357,33.387,44.348,  NaN,0.0, NaN, NaN, NaN, NaN,23.949,394.903,14.90,1012.08,95.00,NaN,98.0,NaN,4.2,NaN,281.4,NaN,7.8,NaN,NaN, NaN,NaN,138.0,NaN,NaN,NaN,2,10.5,001556,   NaN,136.5,     NaN,      NaN,NaN,11.5,NaN,18.361, NaN,NaN,NaN, NaN, NaN
20040728,002614,1306230,34.180667,-119.512500,NaN,18.322,33.391,44.320,  NaN,0.0, NaN, NaN, NaN, NaN,23.961,393.751,14.90,1012.05,95.30,NaN,103.0,NaN,3.1,NaN,285.0,NaN,6.9,NaN,NaN, NaN,NaN,133.0,NaN,NaN,NaN,2,10.6,001586,   NaN,131.3,     NaN,      NaN,NaN,11.0,NaN,18.326, NaN,NaN,NaN, NaN, NaN
20040728,002644,1306260,34.179667,-119.511167,NaN,18.231,33.393,44.235,  NaN,0.0, NaN, NaN, NaN, NaN,23.985,391.474,15.00,1012.05,95.70,NaN,74.0,NaN,2.6,NaN,288.8,NaN,5.9,NaN,NaN, NaN,NaN,134.0,NaN,NaN,NaN,2,10.7,001616,   NaN,133.9,     NaN,      NaN,NaN,11.4,NaN,18.236, NaN,NaN,NaN, NaN, NaN
20040728,002715,1306291,34.178667,-119.510000,NaN,18.140,33.390,44.143,  NaN,0.0, NaN, NaN, NaN, NaN,24.005,389.543,15.10,1012.08,95.20,NaN,98.0,NaN,4.1,NaN,280.2,NaN,7.0,NaN,NaN, NaN,NaN,134.0,NaN,NaN,NaN,2,10.4,001646,   NaN,129.2,     NaN,      NaN,NaN,11.2,NaN,18.144, NaN,NaN,NaN, NaN, NaN
20040728,002745,1306321,34.178167,-119.508500,NaN,18.119,33.391,44.123,  NaN,0.0, NaN, NaN, NaN, NaN,24.011,389.034,15.10,1012.13,95.70,NaN,245.0,NaN,0.6,NaN,276.1,NaN,5.1,NaN,NaN, NaN,NaN,96.0,NaN,NaN,NaN,2,9.5,001676,   NaN,88.4,     NaN,      NaN,NaN,8.6,NaN,18.123, NaN,NaN,NaN, NaN, NaN
20040728,002814,1306350,34.178167,-119.506833,NaN,18.083,33.390,44.088,  NaN,0.0, NaN, NaN, NaN, NaN,24.019,388.207,15.10,1012.05,94.80,NaN,141.0,NaN,1.4,NaN,267.3,NaN,5.5,NaN,NaN, NaN,NaN,92.0,NaN,NaN,NaN,2,9.9,001706,   NaN,94.2,     NaN,      NaN,NaN,10.2,NaN,18.087, NaN,NaN,NaN, NaN, NaN
20040728,002844,1306380,34.178000,-119.505167,NaN,18.094,33.386,44.094,  NaN,0.0, NaN, NaN, NaN, NaN,24.014,388.753,15.00,1012.04,94.70,NaN,107.0,NaN,2.4,NaN,271.3,NaN,7.1,NaN,NaN, NaN,NaN,104.0,NaN,NaN,NaN,2,10.3,001736,   NaN,105.7,     NaN,      NaN,NaN,11.0,NaN,18.098, NaN,NaN,NaN, NaN, NaN
20040728,002914,1306410,34.177500,-119.503500,NaN,18.135,33.385,44.132,  NaN,0.0, NaN, NaN, NaN, NaN,24.003,389.768,15.00,1012.11,94.80,NaN,144.0,NaN,2.4,NaN,271.0,NaN,7.5,NaN,NaN, NaN,NaN,106.0,NaN,NaN,NaN,2,10.3,001766,   NaN,102.6,     NaN,      NaN,NaN,11.0,NaN,18.139, NaN,NaN,NaN, NaN, NaN
20040728,002945,1306441,34.177167,-119.501833,NaN,18.159,33.385,44.155,  NaN,0.0, NaN, NaN, NaN, NaN,23.996,390.378,14.90,1012.10,94.50,NaN,149.0,NaN,2.5,NaN,278.0,NaN,7.9,NaN,NaN, NaN,NaN,105.0,NaN,NaN,NaN,2,10.5,001796,   NaN,104.2,     NaN,      NaN,NaN,10.8,NaN,18.163, NaN,NaN,NaN, NaN, NaN
20040728,003015,1306471,34.176833,-119.500167,NaN,18.211,33.384,44.204,  NaN,0.0, NaN, NaN, NaN, NaN,23.983,391.657,15.00,1012.11,94.90,NaN,157.0,NaN,3.0,NaN,275.8,NaN,8.1,NaN,NaN, NaN,NaN,107.0,NaN,NaN,NaN,2,10.5,001826,   NaN,104.9,     NaN,      NaN,NaN,11.2,NaN,18.215, NaN,NaN,NaN, NaN, NaN
20040728,003044,1306500,34.176333,-119.498500,NaN,18.268,33.383,44.259,  NaN,0.0, NaN, NaN, NaN, NaN,23.969,393.034,15.00,1012.12,95.00,NaN,124.0,NaN,1.9,NaN,272.5,NaN,6.8,NaN,NaN, NaN,NaN,105.0,NaN,NaN,NaN,2,10.5,001856,   NaN,104.0,     NaN,      NaN,NaN,10.8,NaN,18.272, NaN,NaN,NaN, NaN, NaN
20040728,003114,1306530,34.176000,-119.496833,NaN,18.325,33.383,44.313,  NaN,0.0, NaN, NaN, NaN, NaN,23.954,394.413,15.00,1012.12,95.00,NaN,185.0,NaN,1.5,NaN,283.3,NaN,7.0,NaN,NaN, NaN,NaN,106.0,NaN,NaN,NaN,2,10.6,001886,   NaN,104.9,     NaN,      NaN,NaN,11.4,NaN,18.329, NaN,NaN,NaN, NaN, NaN
20040728,003145,1306561,34.175500,-119.495000,NaN,18.392,33.384,44.379,  NaN,0.0, NaN, NaN, NaN, NaN,23.939,395.885,15.10,1012.12,95.20,NaN,133.0,NaN,1.4,NaN,278.0,NaN,6.3,NaN,NaN, NaN,NaN,107.0,NaN,NaN,NaN,2,10.7,001916,   NaN,105.1,     NaN,      NaN,NaN,11.3,NaN,18.396, NaN,NaN,NaN, NaN, NaN
20040728,003215,1306591,34.175167,-119.493333,NaN,18.476,33.380,44.455,  NaN,0.0, NaN, NaN, NaN, NaN,23.914,398.230,15.10,1012.06,95.00,NaN,108.0,NaN,1.2,NaN,277.2,NaN,6.2,NaN,NaN, NaN,NaN,105.0,NaN,NaN,NaN,2,10.7,001946,   NaN,104.2,     NaN,      NaN,NaN,11.1,NaN,18.480, NaN,NaN,NaN, NaN, NaN
20040728,003244,1306620,34.174833,-119.491667,NaN,18.594,33.377,44.566,  NaN,0.0, NaN, NaN, NaN, NaN,23.883,401.196,15.30,1012.05,95.30,NaN,117.0,NaN,1.6,NaN,271.9,NaN,6.8,NaN,NaN, NaN,NaN,103.0,NaN,NaN,NaN,2,10.6,001976,   NaN,102.0,     NaN,      NaN,NaN,11.5,NaN,18.598, NaN,NaN,NaN, NaN, NaN
20040728,003314,1306650,34.174500,-119.489833,NaN,18.674,33.381,44.648,  NaN,0.0, NaN, NaN, NaN, NaN,23.866,402.842,15.30,1012.10,95.30,NaN,103.0,NaN,2.1,NaN,268.7,NaN,6.6,NaN,NaN, NaN,NaN,105.0,NaN,NaN,NaN,2,10.7,002006,   NaN,106.8,     NaN,      NaN,NaN,10.9,NaN,18.679, NaN,NaN,NaN, NaN, NaN
20040728,003345,1306681,34.174000,-119.488167,NaN,18.705,33.382,44.679,  NaN,0.0, NaN, NaN, NaN, NaN,23.859,403.527,15.10,1012.19,94.50,NaN,132.0,NaN,2.1,NaN,272.9,NaN,6.9,NaN,NaN, NaN,NaN,109.0,NaN,NaN,NaN,2,10.6,002036,   NaN,106.9,     NaN,      NaN,NaN,11.3,NaN,18.710, NaN,NaN,NaN, NaN, NaN
20040728,003415,1306711,34.173667,-119.486500,NaN,18.674,33.383,44.650,  NaN,0.0, NaN, NaN, NaN, NaN,23.867,402.692,15.10,1012.15,94.70,NaN,258.0,NaN,0.9,NaN,285.4,NaN,6.2,NaN,NaN, NaN,NaN,102.0,NaN,NaN,NaN,2,10.8,002066,   NaN,100.7,     NaN,      NaN,NaN,10.2,NaN,18.679, NaN,NaN,NaN, NaN, NaN
20040728,003445,1306741,34.173333,-119.484667,NaN,18.658,33.382,44.633,  NaN,0.0, NaN, NaN, NaN, NaN,23.870,402.393,15.10,1012.11,94.80,NaN,135.0,NaN,2.6,NaN,275.6,NaN,7.7,NaN,NaN, NaN,NaN,107.0,NaN,NaN,NaN,2,10.7,002096,   NaN,108.6,     NaN,      NaN,NaN,11.5,NaN,18.662, NaN,NaN,NaN, NaN, NaN
20040728,003514,1306770,34.172833,-119.483000,NaN,18.668,33.380,44.641,  NaN,0.0, NaN, NaN, NaN, NaN,23.867,402.764,15.00,1012.14,94.80,NaN,161.0,NaN,2.8,NaN,277.6,NaN,8.0,NaN,NaN, NaN,NaN,108.0,NaN,NaN,NaN,2,10.6,002126,   NaN,106.1,     NaN,      NaN,NaN,11.4,NaN,18.673, NaN,NaN,NaN, NaN, NaN
20040728,003544,1306800,34.172500,-119.481333,NaN,18.658,33.380,44.631,  NaN,0.0, NaN, NaN, NaN, NaN,23.869,402.499,15.10,1012.13,94.90,NaN,128.0,NaN,1.4,NaN,270.3,NaN,5.9,NaN,NaN, NaN,NaN,101.0,NaN,NaN,NaN,2,10.6,002156,   NaN,100.0,     NaN,      NaN,NaN,10.5,NaN,18.662, NaN,NaN,NaN, NaN, NaN
20040728,003615,1306831,34.172167,-119.479667,NaN,18.650,33.379,44.622,  NaN,0.0, NaN, NaN, NaN, NaN,23.870,402.425,15.30,1012.15,95.40,NaN,144.0,NaN,2.9,NaN,273.2,NaN,8.0,NaN,NaN, NaN,NaN,105.0,NaN,NaN,NaN,2,10.7,002186,   NaN,105.9,     NaN,      NaN,NaN,11.8,NaN,18.654, NaN,NaN,NaN, NaN, NaN
20040728,003645,1306861,34.171667,-119.477833,NaN,18.657,33.378,44.628,  NaN,0.0, NaN, NaN, NaN, NaN,23.868,402.628,15.30,1012.11,94.70,NaN,137.0,NaN,2.5,NaN,275.2,NaN,7.7,NaN,NaN, NaN,NaN,108.0,NaN,NaN,NaN,2,10.8,002216,   NaN,107.1,     NaN,      NaN,NaN,11.4,NaN,18.662, NaN,NaN,NaN, NaN, NaN
20040728,003714,1306890,34.171333,-119.476167,NaN,18.657,33.378,44.628,  NaN,0.0, NaN, NaN, NaN, NaN,23.868,402.607,15.30,1012.14,95.40,NaN,129.0,NaN,2.2,NaN,268.4,NaN,6.9,NaN,NaN, NaN,NaN,106.0,NaN,NaN,NaN,2,10.9,002246,   NaN,104.2,     NaN,      NaN,NaN,11.3,NaN,18.661, NaN,NaN,NaN, NaN, NaN
20040728,003744,1306920,34.170833,-119.474333,NaN,18.670,33.377,44.640,  NaN,0.0, NaN, NaN, NaN, NaN,23.864,403.039,15.30,1012.14,94.70,NaN,153.0,NaN,2.7,NaN,268.6,NaN,7.7,NaN,NaN, NaN,NaN,105.0,NaN,NaN,NaN,2,10.9,002276,   NaN,104.9,     NaN,      NaN,NaN,11.5,NaN,18.675, NaN,NaN,NaN, NaN, NaN
20040728,003814,1306950,34.170500,-119.472667,NaN,18.652,33.380,44.624,  NaN,0.0, NaN, NaN, NaN, NaN,23.870,402.400,15.30,1012.18,95.20,NaN,137.0,NaN,2.6,NaN,268.8,NaN,7.6,NaN,NaN, NaN,NaN,105.0,NaN,NaN,NaN,2,11.0,002306,   NaN,103.3,     NaN,      NaN,NaN,11.3,NaN,18.656, NaN,NaN,NaN, NaN, NaN
20040728,003845,1306981,34.170167,-119.470833,NaN,18.613,33.378,44.586,  NaN,0.0, NaN, NaN, NaN, NaN,23.879,401.576,15.10,1012.16,94.40,NaN,161.0,NaN,3.1,NaN,277.6,NaN,8.7,NaN,NaN, NaN,NaN,104.0,NaN,NaN,NaN,2,11.0,002336,   NaN,104.2,     NaN,      NaN,NaN,11.4,NaN,18.618, NaN,NaN,NaN, NaN, NaN
20040728,003915,1307011,34.169667,-119.469167,NaN,18.588,33.379,44.563,  NaN,0.0, NaN, NaN, NaN, NaN,23.886,400.924,15.30,1012.20,95.50,NaN,156.0,NaN,2.5,NaN,276.6,NaN,7.8,NaN,NaN, NaN,NaN,108.0,NaN,NaN,NaN,2,10.9,002366,   NaN,106.2,     NaN,      NaN,NaN,11.8,NaN,18.593, NaN,NaN,NaN, NaN, NaN
20040728,003944,1307040,34.169333,-119.467333,NaN,18.584,33.377,44.556,  NaN,0.0, NaN, NaN, NaN, NaN,23.885,400.975,15.40,1012.12,95.30,NaN,176.0,NaN,1.2,NaN,285.6,NaN,7.2,NaN,NaN, NaN,NaN,103.0,NaN,NaN,NaN,2,10.9,002396,   NaN,101.5,     NaN,      NaN,NaN,11.2,NaN,18.588, NaN,NaN,NaN, NaN, NaN